Theta_e
349 347 347 343 337 335 337 337 333 330 331 325 315 313 326 336 338 339 337 331 325 323 323 325 328 331 334 337 340 341 341 342 343 343 343 342 343 343 343 343 343 343 343 343 343 342 342 341 340 339 340 340 340 339 339 338 338 338 337 337 337 337 337 338 338 338 337 337 337 335 333 332 331 331 332 333 333 332 331 332 333 335 336 337 337
348 348 347 342 336 336 338 338 333 330 331 325 316 314 322 332 337 339 339 338 334 330 331 333 336 338 339 340 341 342 342 343 343 343 343 343 343 343 343 343 343 343 342 342 341 341 341 341 340 339 339 339 339 338 338 338 337 336 335 334 333 332 332 333 334 335 336 336 336 335 334 332 331 331 331 332 332 331 330 330 331 333 335 336 337
348 348 347 343 337 336 338 337 333 330 331 325 317 314 319 329 335 338 339 340 339 337 338 339 340 341 341 342 342 342 342 343 343 343 343 343 343 343 343 343 342 342 341 340 339 339 339 339 337 337 338 338 338 338 338 337 335 333 332 331 330 329 329 328 329 330 331 333 334 334 334 331 330 331 331 330 329 329 330 330 329 331 333 334 335
348 348 347 343 337 337 338 338 333 331 331 326 319 314 318 326 331 337 340 339 338 338 340 341 342 342 342 342 342 342 343 343 343 343 343 343 343 343 343 342 342 341 340 339 339 339 338 337 336 336 337 338 338 338 338 336 333 332 332 332 331 331 330 329 328 327 328 329 331 332 333 330 329 332 332 331 329 329 330 330 329 330 331 332 331
348 347 346 342 337 338 338 338 333 331 332 327 320 315 317 322 326 333 337 337 336 338 341 342 342 342 342 342 343 343 343 343 343 343 343 343 343 343 343 342 342 340 340 340 340 340 338 336 336 336 337 337 338 337 337 336 335 334 334 333 333 333 332 331 330 328 327 328 329 331 332 330 328 330 330 330 330 330 330 330 330 331 331 330 328
349 346 346 341 337 338 338 338 334 331 332 328 321 317 316 319 323 329 335 335 337 339 341 342 343 342 342 342 343 342 343 343 343 343 343 343 343 342 342 342 342 341 340 340 341 340 338 337 336 336 335 336 337 337 337 336 336 336 336 335 334 335 334 332 331 329 327 328 329 331 332 331 329 329 330 330 330 329 330 330 330 330 330 329 329
347 346 345 340 337 338 338 338 335 332 332 329 322 318 317 318 321 328 335 338 338 340 341 342 342 343 342 342 342 342 343 342 342 342 342 342 342 342 341 341 340 339 338 338 339 340 338 336 335 333 332 335 337 337 337 336 336 336 336 335 335 335 335 334 332 330 327 327 328 331 330 329 329 330 331 330 330 330 330 329 329 329 329 330 329
346 346 344 339 338 337 337 338 336 333 333 330 324 320 317 318 321 328 337 339 339 340 341 342 342 343 342 343 343 342 342 342 342 341 342 342 341 341 340 340 339 338 336 333 332 336 338 335 335 334 332 334 335 335 335 335 335 333 332 332 332 332 333 334 333 330 327 327 327 327 326 326 329 330 331 331 330 330 329 329 329 329 329 329 328
346 345 343 339 338 337 336 338 337 334 333 331 325 320 318 318 320 330 338 338 339 340 341 342 343 342 342 343 342 342 342 342 342 341 341 341 340 339 339 338 337 336 335 331 326 327 332 334 335 334 331 331 331 332 333 333 331 329 330 331 331 332 333 334 333 330 329 329 327 325 326 328 330 330 331 330 330 329 329 328 329 329 329 329 328
346 345 343 338 338 338 336 337 336 334 333 332 327 322 320 318 321 332 339 338 339 340 341 342 342 342 342 342 342 342 342 342 342 342 341 340 339 337 336 335 333 333 332 331 327 323 324 327 330 330 329 328 328 329 329 328 328 330 331 332 332 332 333 334 332 330 329 329 327 326 329 331 331 333 332 331 330 330 330 329 329 330 330 330 330
345 345 342 339 340 338 336 337 335 334 334 333 329 325 321 319 327 336 338 338 339 340 341 342 342 342 342 342 342 342 342 342 342 341 340 338 337 336 336 332 330 331 331 331 331 329 324 321 321 325 327 327 327 326 326 327 330 332 332 332 331 331 332 332 331 329 328 327 325 326 331 333 334 334 333 333 331 331 332 330 330 331 331 332 332
346 345 341 340 341 338 336 337 336 335 334 334 331 327 323 323 333 337 337 337 339 340 341 341 342 341 341 342 342 342 342 342 341 340 339 338 336 335 334 329 327 329 329 328 329 328 323 317 316 320 323 324 324 325 327 330 332 332 331 332 331 331 331 330 328 327 327 326 325 328 331 333 334 334 334 334 332 331 332 332 332 332 332 332 332
346 344 343 342 341 339 337 338 338 336 335 335 333 329 324 329 336 336 337 337 338 340 341 341 341 341 341 342 342 342 342 341 341 339 337 336 333 331 329 326 326 326 325 323 322 320 317 317 316 317 320 322 324 328 330 331 332 332 331 331 331 330 329 328 327 325 327 328 328 329 330 331 332 333 333 333 333 331 332 333 333 333 331 331 332
345 344 344 343 341 341 338 338 339 337 335 335 335 331 326 332 336 334 335 337 338 340 340 340 341 341 341 342 342 342 341 341 340 339 337 334 331 329 327 325 327 327 321 317 316 315 317 318 317 317 320 323 328 331 331 332 333 332 330 330 330 330 329 328 326 324 327 329 328 328 329 329 331 333 333 333 333 331 331 331 332 332 330 329 331
345 344 344 343 342 342 340 338 338 337 336 335 335 332 328 332 335 333 334 335 337 338 339 340 340 341 341 341 341 341 341 340 340 339 338 336 333 329 326 325 327 328 320 314 314 314 316 318 318 318 322 327 330 331 332 332 332 331 330 330 330 330 329 326 323 323 326 328 329 330 330 331 332 334 334 333 332 330 330 329 329 330 329 328 328
345 345 344 343 342 342 341 340 338 337 336 336 335 333 330 331 334 332 333 334 335 337 339 340 340 341 341 341 340 340 341 340 340 339 338 337 335 330 328 326 326 327 321 315 314 314 316 318 319 320 325 330 331 331 332 332 332 331 330 330 330 330 327 323 321 322 325 328 330 331 331 332 333 334 334 333 331 330 329 328 326 327 328 327 326
345 344 344 343 342 341 341 341 340 338 337 337 336 335 331 329 333 333 332 333 335 336 338 340 340 341 341 340 339 339 340 340 339 339 338 337 335 332 328 327 326 328 323 315 313 315 317 319 320 324 329 331 331 332 332 332 332 332 330 330 331 330 326 323 322 322 325 329 331 332 332 333 332 332 333 332 331 330 328 328 326 325 326 326 325
344 344 343 342 342 342 341 340 339 339 338 338 337 335 329 326 328 332 333 332 335 336 336 339 339 340 340 338 338 339 339 339 338 338 337 335 334 332 328 326 327 328 325 317 313 315 318 320 322 327 331 330 331 332 332 332 332 332 331 331 331 329 327 326 325 324 325 328 330 331 332 332 330 330 331 331 331 330 328 327 327 325 325 326 325
344 343 343 342 342 342 341 340 340 338 338 338 337 334 330 325 324 329 333 333 335 336 336 337 336 337 337 337 337 338 338 336 336 335 335 335 334 333 329 327 327 328 327 320 314 316 319 321 325 328 331 330 331 332 333 332 332 332 331 331 331 329 329 328 327 326 325 326 327 329 331 330 329 330 331 330 330 330 329 328 328 326 325 325 325
343 343 342 342 341 341 340 340 340 338 338 337 334 333 333 330 327 329 332 333 335 335 335 336 335 336 336 336 336 336 336 335 335 334 335 335 334 333 330 328 329 328 328 324 317 316 319 322 326 330 331 330 331 332 333 333 332 332 332 331 330 330 330 329 328 327 326 326 326 327 328 328 329 330 330 329 330 329 328 327 327 326 325 325 326
342 342 342 341 341 340 340 340 340 338 337 334 331 332 334 333 332 332 331 333 333 334 335 335 336 336 336 336 336 336 336 335 335 335 335 335 334 334 332 329 329 329 329 327 322 316 318 322 327 330 330 330 330 332 333 333 333 332 331 331 330 331 331 329 329 327 326 326 326 326 327 328 329 330 329 329 329 328 327 327 326 326 325 326 326
343 342 341 341 341 340 340 340 339 338 334 331 329 332 335 333 333 333 332 333 333 332 333 334 335 336 336 336 335 335 335 335 335 335 335 335 334 334 333 331 328 329 329 329 327 320 317 321 326 328 329 330 330 332 333 333 333 332 331 331 330 332 331 330 330 327 326 326 326 327 328 329 330 330 329 329 328 327 326 326 326 326 326 326 326
342 341 340 340 340 340 340 339 338 336 332 330 329 332 335 333 332 333 333 333 333 333 332 333 334 334 334 334 334 334 334 334 334 334 335 335 334 334 334 333 330 329 329 329 329 325 318 318 324 326 327 329 330 332 333 333 334 333 332 331 331 332 331 331 330 328 327 327 326 327 328 329 329 329 329 328 328 327 326 326 326 326 325 326 326
341 340 340 340 340 340 339 337 336 334 330 330 330 332 335 332 332 334 334 333 334 334 334 335 335 334 334 333 333 332 332 332 331 330 332 333 332 333 335 334 332 329 329 329 329 329 323 318 320 324 326 327 329 332 332 333 333 334 333 332 332 332 331 331 331 329 328 327 326 325 326 328 329 329 329 328 328 326 326 326 326 325 325 326 327
341 340 340 340 340 339 338 336 334 332 330 331 331 332 333 333 333 334 335 333 333 333 334 335 335 333 334 333 331 331 332 333 332 329 329 331 329 329 332 333 332 329 328 329 329 330 327 321 318 321 324 326 329 332 332 332 333 333 333 333 332 332 331 331 331 330 328 328 326 325 325 327 328 328 328 328 327 326 325 326 326 325 324 325 327
340 339 339 339 339 337 336 334 332 332 331 332 333 332 332 332 333 333 334 333 332 333 333 335 334 333 333 332 331 332 334 335 336 335 334 334 331 328 327 328 329 329 329 329 329 329 329 327 321 319 322 326 330 331 331 331 331 331 332 332 333 332 332 331 331 330 328 327 327 326 325 325 326 327 329 328 326 326 326 326 326 324 324 324 325
339 338 338 337 337 335 334 333 332 333 332 332 334 334 333 332 332 332 333 333 332 332 332 334 334 334 333 332 332 333 335 336 336 337 338 338 337 333 330 329 328 327 328 328 329 328 329 329 326 322 321 326 330 330 330 330 330 330 331 333 333 333 333 332 332 331 329 328 327 326 325 325 327 328 329 328 326 326 327 327 326 324 323 324 324
338 337 337 337 336 335 334 333 333 333 333 333 334 334 333 332 333 332 332 332 331 331 332 332 334 334 333 333 334 335 335 336 336 337 337 337 338 337 336 335 333 330 328 327 327 328 328 329 329 326 324 327 330 330 329 329 329 329 331 333 333 333 333 333 332 332 330 328 327 327 326 325 327 329 329 328 327 326 327 327 326 325 324 324 325
338 337 337 337 336 335 334 334 333 334 334 333 333 333 333 332 333 332 332 332 331 331 332 332 332 332 332 332 333 334 335 335 335 336 336 337 337 338 338 337 337 335 332 328 326 326 328 328 329 328 327 328 329 329 329 329 329 330 333 334 334 334 333 333 333 332 331 328 328 327 326 325 326 328 329 329 328 326 327 327 326 326 325 325 325
337 337 337 336 335 335 335 335 335 335 334 333 332 332 332 331 332 332 333 333 332 332 331 331 331 330 331 331 332 333 334 335 335 336 337 338 338 338 338 337 337 337 336 333 328 325 325 328 328 328 328 328 328 328 329 330 331 333 334 334 335 335 333 333 333 332 331 329 328 328 326 325 325 327 328 328 328 328 327 327 327 327 327 327 326
338 338 337 336 336 337 336 337 338 336 333 332 332 333 332 331 332 333 333 333 333 334 334 334 334 334 334 335 336 336 336 337 337 337 338 338 338 338 338 338 337 337 337 337 334 328 324 326 327 328 328 328 328 328 329 331 333 334 334 334 334 334 334 333 332 332 331 329 328 328 326 325 325 326 328 328 328 329 328 328 328 328 328 328 326
338 338 337 336 338 339 338 338 339 338 334 333 333 333 333 334 334 334 334 334 335 336 337 337 338 338 338 338 338 338 337 337 337 338 337 338 338 338 338 338 338 338 337 337 337 334 329 327 327 328 328 328 328 329 330 332 333 334 334 334 334 334 334 332 332 332 331 330 328 328 326 325 325 326 327 327 328 329 328 329 329 329 328 327 326
338 338 337 337 339 339 339 339 339 340 337 334 335 336 337 337 338 337 337 337 338 338 338 339 339 338 338 338 338 337 337 337 337 337 337 337 337 338 338 338 338 337 337 337 337 337 334 332 330 329 328 328 328 328 330 331 333 334 334 334 333 334 334 333 332 332 331 329 328 328 326 326 325 325 326 327 328 328 327 328 328 328 328 327 326
338 338 338 337 339 339 340 339 339 341 340 337 337 338 339 339 339 339 339 339 339 339 339 339 338 338 337 337 337 337 337 336 336 336 336 336 337 338 338 337 337 336 336 336 336 337 336 335 334 332 330 329 329 329 330 330 331 333 333 333 333 333 333 332 332 332 331 330 328 328 327 326 326 326 326 326 328 328 327 328 327 327 327 326 325
338 338 339 338 339 340 340 340 340 341 341 340 339 339 340 340 340 340 340 340 339 338 338 338 338 337 337 336 336 336 336 336 336 336 336 336 337 337 337 337 337 337 336 336 336 336 336 336 335 334 333 331 332 332 332 331 331 331 332 333 332 332 332 332 331 331 331 330 329 328 327 326 325 326 326 326 327 327 327 328 327 327 327 326 325
339 339 339 339 340 340 340 341 341 341 341 341 340 340 340 340 340 339 339 339 338 337 337 337 337 337 337 336 336 336 336 336 336 336 335 335 335 335 336 336 337 337 337 337 336 336 336 336 335 334 333 333 333 333 332 333 332 331 330 331 332 332 332 331 330 330 331 330 329 328 328 326 325 326 326 326 327 326 327 328 327 326 326 326 324
340 340 340 340 340 340 341 341 341 341 340 340 340 341 340 339 339 339 338 338 337 337 337 337 337 336 337 336 336 337 336 336 336 336 336 335 335 335 335 335 336 337 337 337 337 336 336 335 335 334 333 333 333 333 333 332 332 331 330 330 331 331 331 331 330 330 330 330 329 329 329 327 326 326 326 326 326 326 326 327 327 326 326 325 323
340 340 340 340 340 341 340 341 341 340 339 339 340 341 340 339 339 338 338 337 337 337 336 336 336 336 337 336 337 337 337 337 337 337 337 336 336 336 335 335 335 336 336 337 337 336 336 335 334 334 333 332 332 333 333 332 332 331 330 330 330 331 331 331 331 330 330 330 329 329 329 328 327 327 326 326 326 326 325 326 327 326 326 325 323
339 339 339 339 340 340 339 340 340 341 340 340 340 340 339 339 338 338 337 337 337 337 337 336 336 337 337 337 337 337 337 338 337 337 337 337 337 337 336 336 336 336 336 335 335 335 334 334 334 334 333 332 332 332 332 332 332 330 329 330 330 331 331 331 331 330 330 330 329 329 329 329 328 327 327 326 326 326 325 326 327 326 326 325 324
339 339 339 339 339 338 339 339 340 341 341 340 340 339 339 338 337 337 337 337 337 337 337 337 337 337 337 337 337 337 338 337 338 338 338 338 338 337 337 336 336 336 335 335 334 333 333 333 334 334 334 333 332 332 332 332 332 330 329 329 330 331 331 330 330 330 330 329 329 329 329 329 328 327 327 326 325 326 325 325 326 326 326 326 325
339 339 339 338 338 339 339 340 340 340 340 339 339 338 338 337 337 337 337 337 338 338 337 337 337 337 337 337 337 337 337 337 337 337 337 338 337 338 338 337 337 336 335 334 334 334 333 333 333 333 333 332 332 332 332 332 331 330 330 330 330 330 330 330 330 330 330 330 329 329 329 329 329 327 327 326 325 325 325 325 326 326 326 325 324
339 339 339 339 339 339 340 340 340 339 338 339 338 338 337 337 337 337 338 338 338 337 337 337 337 336 336 336 336 336 336 336 337 337 337 338 338 337 337 337 337 335 334 333 333 334 333 333 333 333 332 332 332 332 332 332 330 330 330 330 330 330 330 330 330 330 330 330 330 330 329 329 329 328 327 327 325 325 326 325 326 325 326 325 324
341 340 339 339 338 339 339 339 339 338 338 338 338 338 338 337 338 337 338 337 336 336 336 336 336 336 336 336 336 336 336 336 337 337 336 336 336 336 336 336 336 335 334 334 334 333 333 333 333 332 332 332 332 332 332 332 330 330 330 330 332 332 331 330 329 330 330 330 330 330 330 330 330 329 328 327 326 326 325 326 326 325 326 325 325
340 340 339 339 338 338 339 338 338 338 338 338 338 338 338 338 338 337 337 336 335 335 335 335 335 335 335 335 336 336 336 336 336 336 335 335 335 335 335 335 335 334 333 334 334 334 333 333 333 332 332 332 332 331 331 331 330 331 330 330 330 331 333 331 328 330 330 330 330 330 331 330 330 329 328 328 327 327 326 326 326 326 325 325 325
339 339 338 338 338 337 337 337 337 338 338 338 338 337 337 337 337 336 336 335 335 334 334 334 334 334 334 334 335 335 335 335 335 335 334 334 334 334 333 333 332 331 332 333 334 333 333 333 333 332 332 332 331 331 331 331 331 331 330 331 330 331 334 331 329 330 330 329 331 330 330 330 330 329 329 328 328 327 327 326 326 326 325 324 324
337 338 337 337 336 335 335 336 336 336 337 337 337 337 336 336 335 335 334 334 333 333 332 332 332 332 332 332 333 333 333 333 333 333 333 333 333 333 332 331 330 330 331 331 331 332 332 332 332 331 331 331 331 330 331 330 330 331 330 330 330 331 331 329 330 333 331 329 330 330 330 330 330 329 329 329 328 328 328 327 327 327 326 324 323
332 334 334 333 333 333 333 334 334 334 335 335 335 335 335 334 334 334 333 333 332 331 331 330 330 330 330 330 330 330 330 330 331 331 331 331 332 332 331 330 330 330 330 330 330 331 331 331 331 331 331 330 331 330 330 330 329 329 329 330 329 329 329 329 330 332 332 331 330 329 330 330 330 329 329 329 329 329 329 328 328 328 328 325 323
330 331 331 331 331 332 332 332 332 332 332 333 333 333 333 332 332 332 331 331 331 330 330 330 329 329 329 329 328 328 329 329 329 329 330 330 330 331 330 330 330 330 330 330 330 330 330 331 331 331 330 330 330 331 331 330 329 329 329 329 329 329 329 329 329 329 331 333 332 330 330 330 330 330 329 330 329 329 330 329 329 329 329 327 323
328 329 329 329 330 330 330 330 329 329 329 330 331 331 330 330 330 330 330 329 329 329 328 328 328 328 328 328 328 327 327 327 327 327 328 328 329 329 329 330 330 329 329 329 329 329 329 330 330 330 331 330 331 331 331 330 329 329 329 328 329 329 329 329 328 328 329 331 332 331 331 330 330 330 330 330 330 330 330 330 330 329 329 329 325
327 328 328 328 328 328 328 327 326 326 326 327 328 328 328 328 328 328 328 328 327 327 327 327 327 326 326 326 326 326 325 325 325 325 326 327 327 328 328 329 329 329 329 329 329 329 329 329 329 329 330 330 331 330 331 330 329 329 329 328 328 328 329 329 328 328 328 328 330 330 330 330 331 330 330 330 330 330 331 330 330 330 329 330 327
326 326 326 326 326 326 325 325 324 324 324 325 325 325 325 326 326 326 326 326 325 325 325 325 325 325 324 324 325 324 323 324 324 324 325 326 327 327 328 328 328 328 329 329 329 329 329 329 329 329 329 330 330 330 330 330 330 329 328 328 328 328 329 329 329 329 328 328 329 329 329 330 331 330 330 330 330 330 331 331 329 329 330 330 329
Wind_Speed
21 21 21 21 22 21 17 15 14 14 15 15 16 18 21 21 20 20 21 21 22 23 22 22 22 21 20 19 18 18 18 18 18 18 19 19 19 18 18 17 17 17 17 17 17 17 17 17 18 18 18 17 16 17 17 17 18 18 18 18 17 17 16 16 16 15 15 15 14 14 14 14 13 13 13 13 13 12 13 13 14 15 16 15 16
24 22 21 21 23 21 17 15 14 15 15 15 15 17 21 22 21 20 20 19 20 21 20 20 20 20 19 19 18 18 18 18 18 18 19 19 19 18 17 17 17 17 17 17 17 17 17 17 18 17 17 16 16 17 17 18 18 18 18 18 17 17 16 15 14 14 13 13 14 14 14 14 14 13 13 12 12 11 12 13 12 13 14 13 14
24 22 21 22 23 21 17 16 15 15 15 15 15 17 21 22 20 19 19 18 18 19 19 19 19 19 19 19 19 19 19 19 19 18 18 18 18 18 17 17 17 17 17 17 17 17 17 17 17 17 16 16 16 16 17 17 18 19 18 18 17 17 16 15 14 13 11 11 12 13 14 14 14 13 13 12 11 11 11 12 11 12 12 12 13
24 22 21 22 23 21 18 16 15 15 15 15 15 17 20 22 21 19 18 17 18 18 18 19 19 20 20 20 20 19 19 19 19 18 18 18 17 17 17 17 16 17 17 17 17 17 17 16 16 16 16 16 15 15 16 16 17 18 17 17 16 16 15 15 14 12 10 10 11 13 15 15 14 14 14 12 11 12 12 12 12 12 11 11 12
25 23 22 23 23 21 17 17 15 15 14 14 15 16 19 22 22 19 17 18 18 18 18 18 19 20 20 20 20 19 19 18 18 18 18 17 17 16 16 16 16 16 16 17 16 16 16 16 16 16 15 15 15 14 15 15 15 15 15 15 14 14 13 13 12 11 9 11 12 14 15 14 13 12 12 12 12 12 13 13 13 12 12 12 12
25 24 23 23 24 20 18 17 16 15 14 14 15 15 18 20 21 19 18 18 18 18 18 18 19 19 19 20 19 19 18 18 18 18 18 17 17 16 15 15 15 15 15 15 14 14 15 15 14 15 15 14 14 14 14 14 13 12 12 12 12 11 11 11 10 10 9 11 13 14 15 15 14 12 12 12 12 13 13 13 13 13 13 13 13
25 25 23 24 24 20 18 17 16 15 14 14 14 15 16 18 20 19 18 17 17 17 17 18 18 19 19 19 18 18 18 18 17 17 17 17 16 15 14 14 13 13 13 13 13 13 13 13 13 13 14 13 13 13 13 12 11 10 9 8 7 6 7 8 9 8 9 11 12 13 13 14 14 13 12 13 13 13 13 13 13 14 14 14 13
26 24 23 25 24 21 19 17 16 15 14 14 14 15 16 17 19 19 17 17 17 17 17 18 18 18 18 18 17 17 17 17 17 16 16 15 15 14 13 12 11 11 11 12 12 12 12 12 11 12 12 12 12 12 12 11 9 7 6 4 3 3 2 5 7 8 10 12 12 11 11 14 15 13 12 12 13 13 13 13 14 14 14 14 14
25 23 23 25 24 22 19 17 16 15 14 14 14 15 15 17 17 18 17 17 17 16 17 17 17 17 17 17 16 17 17 17 16 15 14 14 13 11 11 11 10 9 9 10 11 12 11 11 11 11 11 11 11 11 11 9 7 5 4 4 5 5 5 4 6 8 10 12 11 12 14 16 15 13 12 12 13 13 14 15 16 15 14 14 15
24 22 23 25 24 22 19 18 17 16 15 14 14 14 14 15 16 16 16 17 17 16 16 16 16 16 16 16 16 16 15 15 14 13 12 11 10 9 9 9 8 7 7 8 9 10 11 11 11 11 10 10 9 9 9 7 5 4 4 5 8 9 8 7 7 8 9 10 10 13 15 14 13 12 12 13 14 13 14 16 16 16 15 14 15
22 22 24 25 23 21 20 18 17 17 15 14 13 13 13 13 15 15 16 16 16 16 16 16 15 15 15 15 14 14 14 14 12 11 10 9 8 8 8 8 7 7 8 8 8 8 9 11 12 12 11 10 9 8 7 5 4 4 4 5 8 9 9 8 7 7 8 9 11 14 14 13 13 12 12 13 13 12 13 15 16 15 14 14 14
21 21 24 24 21 21 20 18 17 17 15 14 12 12 12 13 15 15 15 15 15 15 15 15 15 14 14 14 13 13 13 12 11 10 8 8 8 8 8 8 8 7 6 6 6 6 8 11 12 12 11 10 9 8 6 4 3 3 4 6 8 9 9 8 7 8 10 12 15 17 15 13 13 13 12 12 11 12 13 14 14 14 13 13 14
21 21 23 23 21 20 19 17 16 16 15 14 12 11 12 13 15 15 15 16 15 14 14 15 14 14 14 13 13 12 11 10 9 8 8 8 8 7 8 8 8 6 4 4 5 6 9 12 13 12 11 11 10 7 5 3 3 4 6 8 8 9 8 7 7 10 13 15 17 16 14 13 12 12 11 10 10 10 11 13 13 13 12 12 13
23 22 23 22 21 19 18 17 15 15 14 13 11 11 12 14 14 14 16 16 15 15 14 14 14 14 13 12 12 11 10 9 8 7 6 7 7 7 7 8 8 7 5 5 6 8 11 13 14 14 12 11 9 6 4 3 4 6 8 8 8 8 7 7 8 11 14 16 16 15 14 14 12 10 10 9 9 9 9 10 11 11 10 10 11
25 23 22 21 20 18 17 16 15 14 13 12 11 11 12 13 13 14 15 14 15 15 14 14 13 13 12 12 11 11 9 8 7 6 5 5 5 6 6 7 8 7 7 7 7 9 12 14 15 14 13 11 8 5 4 4 5 7 8 8 8 7 7 7 9 12 14 15 15 14 13 13 12 10 9 8 7 7 7 6 6 7 8 8 8
24 23 22 21 20 18 16 15 14 13 12 12 11 11 12 12 13 13 13 13 13 14 15 15 13 12 12 11 10 10 9 8 6 5 4 4 4 5 5 6 7 7 7 7 8 10 13 14 14 14 13 10 7 5 4 4 5 8 8 8 7 6 7 8 9 11 12 13 14 13 12 12 11 10 8 7 5 5 4 4 3 4 5 6 6
22 22 22 21 19 18 16 15 13 13 12 11 10 11 11 12 13 12 12 11 11 14 16 15 13 12 12 11 10 9 8 7 5 4 3 3 3 3 4 5 6 6 7 7 8 11 13 13 14 13 12 10 7 5 4 4 5 7 8 7 6 6 7 9 9 9 9 11 13 13 12 11 10 9 8 6 5 5 4 4 3 2 2 2 3
21 22 22 20 19 18 17 15 14 13 12 11 10 9 10 11 12 12 12 11 11 14 16 14 12 12 11 10 9 8 7 5 4 2 2 3 3 2 2 4 5 6 6 7 8 11 12 13 13 13 11 9 6 4 4 4 4 7 7 7 6 6 7 8 9 8 8 10 11 11 11 10 9 8 7 6 5 5 4 4 3 2 2 2 2
21 21 21 20 19 18 17 16 15 14 12 11 10 10 10 10 11 12 11 11 13 13 13 13 11 10 9 8 7 7 5 3 2 0 2 3 3 2 2 3 4 5 5 5 7 10 11 12 13 12 11 8 5 5 4 4 4 7 8 7 6 6 6 7 8 8 7 7 7 7 8 8 8 7 6 5 5 4 3 4 4 3 3 4 4
21 20 20 19 19 18 17 16 14 13 12 11 11 11 10 9 9 10 10 11 13 12 11 11 10 9 8 7 6 5 3 2 1 1 2 2 3 3 2 3 3 4 3 4 5 9 11 11 12 12 10 8 5 4 5 5 5 6 7 6 5 5 5 6 7 7 6 5 5 5 6 6 6 6 5 5 5 4 4 4 3 3 4 5 5
19 19 19 19 18 18 17 16 14 12 11 11 12 12 10 9 9 9 9 9 11 11 10 10 9 8 7 7 6 5 3 3 1 1 2 3 3 3 3 2 2 3 3 3 3 6 9 11 11 11 10 8 5 4 5 6 5 6 7 6 5 4 4 5 6 6 6 4 3 4 5 5 5 5 4 5 5 4 4 4 4 3 4 5 5
19 19 19 19 18 18 17 15 14 12 12 12 12 12 10 9 10 9 9 8 8 9 9 9 9 9 8 7 6 4 3 3 2 2 2 3 3 3 3 3 2 2 2 2 2 2 7 9 11 10 9 8 6 4 4 6 6 5 6 5 4 3 3 4 5 5 5 4 3 3 4 5 4 4 4 4 4 4 4 5 4 4 4 5 5
19 20 19 19 18 18 17 15 14 13 13 12 12 13 11 9 10 11 10 9 8 8 9 9 9 8 7 6 5 4 3 3 2 2 3 3 2 2 3 3 2 3 2 1 1 1 3 8 10 10 9 8 7 6 4 4 6 5 5 5 4 3 2 2 3 3 4 3 3 3 4 5 4 4 3 3 4 4 5 5 5 4 5 5 4
20 21 20 19 18 18 16 15 14 14 13 12 13 13 12 10 11 11 11 10 9 9 9 8 7 7 6 5 4 3 2 2 2 2 3 3 3 2 3 4 3 4 3 2 1 1 2 5 9 10 9 8 7 6 5 4 5 5 4 4 4 3 2 1 1 1 2 2 2 2 3 5 5 4 4 3 4 4 5 5 5 5 5 4 4
22 21 21 20 19 17 16 15 14 13 12 11 13 13 12 11 11 11 10 9 9 9 8 7 6 6 5 4 4 3 2 1 2 2 2 3 3 4 5 6 5 5 5 4 3 2 2 3 7 10 10 8 8 6 5 4 4 5 4 3 4 4 4 3 2 1 1 1 2 1 2 5 6 5 4 4 4 4 5 5 5 5 5 5 4
22 22 22 20 18 17 15 15 14 13 12 11 12 12 11 11 10 10 9 9 9 8 7 6 4 4 4 4 4 3 1 1 3 3 4 5 4 4 5 6 6 6 6 6 6 5 4 3 5 9 11 9 8 6 5 4 3 3 3 2 2 4 5 5 4 3 3 2 1 1 2 5 6 4 4 4 4 5 5 5 5 5 6 6 5
22 22 21 19 17 16 15 15 14 13 12 11 11 11 10 10 10 9 8 8 8 7 6 5 3 3 2 2 2 2 2 2 4 4 6 6 6 5 5 6 6 7 7 8 8 7 6 5 4 7 11 10 8 7 5 3 2 2 2 1 2 4 6 7 7 6 5 4 3 2 2 5 5 4 5 5 4 5 5 5 5 5 5 6 6
20 20 20 18 17 16 15 14 14 13 12 12 11 10 9 9 9 8 8 7 6 6 6 5 4 3 2 2 2 3 4 4 4 5 6 7 7 7 7 7 7 7 8 9 10 9 8 7 6 6 9 11 9 7 6 5 6 7 6 5 4 6 8 9 10 9 8 7 5 4 3 4 6 6 7 6 5 5 5 4 5 4 3 5 6
17 19 19 17 17 16 14 14 13 13 12 12 11 10 9 9 9 8 7 6 6 6 5 5 4 4 4 4 5 6 7 7 7 7 8 8 7 7 8 9 9 8 9 10 11 11 10 9 8 7 8 11 11 8 8 8 9 9 9 8 7 8 10 11 12 12 11 9 7 6 5 5 7 8 8 7 6 7 6 5 5 5 4 6 5
17 18 18 17 16 16 14 14 13 12 12 12 11 10 9 9 8 6 5 5 4 4 4 4 4 4 5 6 7 8 9 10 10 11 11 10 9 8 9 9 9 10 10 10 11 11 12 12 11 9 8 10 12 11 10 11 12 11 11 11 10 11 12 12 13 14 13 11 9 8 7 6 7 9 9 7 7 8 7 7 7 6 6 6 5
17 17 18 18 17 16 15 14 13 12 12 11 11 10 8 7 6 5 4 3 2 3 3 3 4 5 7 7 9 10 11 12 12 12 13 12 11 10 10 10 10 10 11 12 12 11 11 13 13 12 11 12 13 13 13 13 13 13 12 12 12 13 13 12 13 15 15 13 11 10 9 8 8 9 10 8 8 8 7 7 7 6 6 5 5
16 17 18 18 17 16 14 13 12 11 11 10 10 9 7 6 4 4 3 2 2 3 4 5 6 7 8 9 10 10 11 12 12 12 13 12 12 12 11 11 11 10 11 13 13 12 12 12 14 14 14 14 14 15 15 15 15 14 13 13 14 14 14 12 12 16 17 15 13 12 11 11 10 9 10 11 10 9 8 8 7 7 6 6 6
16 16 16 16 16 15 13 12 11 10 9 9 8 7 6 4 3 3 3 3 4 5 6 7 7 7 8 9 10 10 10 10 11 11 12 12 11 11 12 12 11 10 11 13 14 14 14 13 13 15 15 16 16 16 16 17 16 15 15 14 14 14 14 13 12 16 18 17 15 13 13 13 12 10 10 12 12 10 9 9 9 9 8 7 6
16 15 14 14 14 14 14 12 10 9 8 8 7 6 5 3 2 3 4 5 6 7 7 7 6 5 6 7 7 8 8 8 9 9 9 9 9 10 11 11 11 10 10 12 12 14 15 16 15 16 16 17 17 17 17 17 18 17 16 15 14 13 13 13 13 15 19 18 16 15 14 15 14 13 12 12 12 11 10 11 9 9 9 8 7
18 16 14 14 14 13 13 12 10 9 8 8 7 5 4 3 3 4 4 5 6 7 7 6 5 5 5 5 5 5 5 6 7 8 7 8 8 10 11 10 11 11 11 11 12 13 15 16 17 18 17 17 17 17 17 17 18 18 17 16 14 12 13 13 14 16 19 20 18 16 15 16 16 15 14 13 12 11 12 13 11 10 10 9 8
19 17 16 14 14 13 13 11 10 10 9 8 6 5 4 3 3 4 4 5 6 6 5 5 5 5 5 4 4 3 4 5 6 7 7 7 8 9 10 10 11 12 13 13 14 15 15 15 16 17 18 18 18 19 21 19 18 18 18 17 14 13 13 14 15 17 20 21 20 18 17 17 17 17 16 15 13 12 14 15 13 12 11 10 9
19 18 17 15 14 13 12 11 10 10 9 8 6 4 3 3 3 4 5 5 5 5 4 5 6 6 6 5 4 4 4 5 6 7 7 8 9 10 10 10 11 12 13 14 15 16 16 17 16 15 18 19 19 22 24 22 18 16 16 16 15 14 14 14 15 17 21 24 23 21 20 18 18 17 17 17 15 13 15 16 15 13 12 11 9
17 17 16 15 13 12 10 10 9 9 7 6 4 4 3 3 4 4 4 4 4 5 6 6 6 6 6 6 5 5 5 6 7 8 9 10 10 11 11 10 11 12 13 14 16 16 17 17 17 18 18 18 19 22 24 22 20 20 19 16 15 15 15 15 15 17 21 25 26 24 22 20 19 19 17 18 17 16 16 16 16 15 14 13 10
14 15 15 14 12 11 10 8 8 7 6 5 4 4 4 4 4 3 3 4 5 6 6 6 6 6 6 7 6 6 7 7 8 9 10 11 11 12 12 12 12 13 14 16 17 17 17 17 18 19 19 17 16 18 20 19 20 23 23 20 17 16 16 15 16 18 21 26 28 25 23 21 21 20 19 19 19 18 17 17 17 16 15 14 13
13 13 13 12 12 11 10 8 7 7 6 4 3 4 4 3 3 3 3 4 5 5 6 6 6 6 6 6 7 7 7 8 9 10 11 12 12 12 13 13 13 14 15 17 18 18 18 18 19 19 19 16 14 16 17 17 17 17 19 20 18 16 17 16 17 18 20 26 28 26 24 23 22 22 21 21 21 20 19 18 18 18 16 16 17
13 12 12 11 10 10 8 7 6 5 4 3 3 3 2 1 2 3 3 5 6 6 6 6 6 6 7 7 7 7 8 8 9 10 12 13 14 14 13 14 14 14 15 16 18 18 18 19 19 19 19 17 16 16 15 14 13 10 10 12 14 15 15 15 17 18 19 23 26 27 26 24 24 24 24 23 22 21 21 20 19 19 18 18 18
14 13 12 10 8 7 6 5 5 4 3 3 3 1 0 1 2 3 4 6 7 7 6 6 7 7 7 7 7 7 7 7 8 9 11 13 14 14 13 14 14 14 15 16 17 18 18 19 18 19 19 18 17 16 14 10 9 9 7 5 7 11 12 14 17 17 18 21 24 26 27 27 27 26 25 25 24 23 22 21 21 21 20 20 19
15 13 11 10 8 7 7 6 5 4 4 3 1 0 1 1 2 4 5 6 7 7 7 7 7 6 6 6 7 8 8 7 7 7 9 11 12 12 11 13 14 15 16 17 17 18 18 18 18 17 18 18 17 16 14 13 11 10 7 4 4 4 6 10 15 19 20 21 23 25 27 28 28 27 27 27 26 25 24 23 22 22 21 22 20
15 14 13 11 10 9 8 7 5 3 3 2 1 1 1 1 2 3 4 5 7 7 6 8 8 7 8 8 8 9 8 8 7 7 8 9 9 10 11 13 14 14 15 16 18 19 19 19 18 17 17 16 16 16 16 16 15 11 5 1 1 1 2 5 10 18 22 22 24 26 27 28 28 28 28 29 28 26 26 25 23 23 23 23 22
16 14 14 13 12 11 10 8 7 5 4 2 2 3 3 3 3 4 6 5 6 6 6 9 10 10 10 10 10 10 9 9 8 8 8 8 8 9 10 12 13 12 12 15 17 18 18 19 18 17 17 17 17 16 17 17 18 18 13 5 0 0 1 2 4 10 16 21 24 26 27 28 28 29 29 30 30 27 27 26 25 24 23 23 23
18 17 16 16 15 15 14 13 11 9 7 6 5 4 4 5 5 6 7 7 8 9 9 10 10 10 10 9 9 9 10 10 9 9 8 9 9 9 9 11 12 11 12 13 14 15 16 17 17 17 17 17 16 16 17 17 17 20 22 18 11 7 4 2 2 2 6 15 21 23 25 26 26 27 29 29 30 30 28 28 26 25 24 24 24
20 22 21 20 19 18 17 16 14 13 10 9 7 6 6 7 7 7 7 7 9 10 9 9 9 9 9 9 10 10 10 10 9 9 9 9 9 9 10 10 11 11 12 11 12 14 15 16 16 16 16 16 16 15 17 17 14 15 21 24 24 21 15 9 5 2 2 6 12 18 21 23 23 24 28 31 31 31 30 29 28 26 25 24 25
22 24 23 22 20 18 16 15 15 14 12 10 8 8 8 8 8 8 8 8 9 9 8 7 7 8 9 10 11 11 11 10 10 10 10 10 10 10 10 10 10 11 12 12 12 13 14 16 17 17 15 14 15 16 18 19 15 14 18 21 24 25 23 18 13 8 3 2 5 10 16 21 22 23 27 30 32 32 31 32 31 28 27 26 26
23 24 23 21 19 17 16 15 14 13 12 10 8 8 8 8 8 8 8 8 7 7 6 7 7 9 10 11 11 11 11 11 11 11 11 11 11 10 10 10 11 12 12 12 12 13 14 16 16 16 14 13 15 17 18 19 18 17 17 17 20 22 21 19 17 13 8 5 4 4 8 14 17 23 27 29 32 34 33 32 33 31 28 28 27
23 23 21 20 18 17 15 14 14 12 11 10 8 8 7 6 6 7 7 6 5 5 6 7 8 9 10 10 11 11 12 13 13 13 14 14 13 13 13 13 13 14 13 12 12 13 13 14 15 15 14 14 15 16 16 17 17 19 19 17 17 17 14 13 15 15 11 7 6 5 7 9 11 19 27 31 32 33 34 34 33 32 31 29 29
23 21 20 18 16 15 14 15 14 11 10 9 8 8 7 6 6 6 6 5 5 5 6 7 8 9 10 10 10 11 12 13 13 14 15 15 15 15 15 15 15 15 14 13 13 13 13 13 14 14 14 15 16 16 17 18 17 17 18 19 19 18 16 12 14 17 13 8 6 5 8 13 13 17 24 30 31 31 33 35 33 33 32 32 31
Wind_Direction
157 155 157 158 151 150 150 146 140 133 124 116 117 126 127 119 116 115 116 119 122 125 125 124 122 120 118 116 116 115 114 113 113 113 113 113 111 109 107 105 104 103 102 100 98 98 98 98 99 98 97 97 98 98 97 96 95 92 90 88 85 84 82 80 81 82 82 83 83 82 79 77 77 81 84 87 90 89 91 93 92 87 81 78 78
156 155 158 157 152 151 151 148 143 136 125 119 117 125 131 124 119 118 118 118 121 123 123 121 119 118 117 118 118 117 117 117 116 115 114 113 111 110 109 107 106 105 103 102 102 101 101 100 99 99 100 101 99 99 100 98 97 94 92 89 86 84 81 77 76 79 80 81 82 81 77 76 78 80 83 87 89 87 89 90 92 90 84 81 81
152 154 156 154 153 153 153 150 145 139 127 121 117 124 133 128 122 120 121 121 121 121 121 120 118 118 118 120 119 119 120 120 117 115 114 113 112 111 110 108 107 105 104 105 105 105 105 103 102 102 103 102 99 100 102 102 101 98 95 91 89 85 80 75 70 70 74 80 85 86 82 80 80 81 82 84 89 91 92 91 92 91 86 84 83
151 153 152 153 154 154 155 152 147 141 130 122 117 124 134 132 126 123 122 122 122 120 119 118 118 117 118 120 119 121 121 120 118 115 114 112 112 110 110 110 109 108 107 107 107 108 108 106 105 107 107 102 99 101 104 104 103 100 97 94 90 84 80 77 70 64 68 83 89 91 87 82 82 83 84 85 90 93 93 92 91 88 85 84 83
150 152 153 153 153 155 157 153 148 143 131 123 119 123 135 137 132 128 124 125 124 120 118 117 118 118 119 120 120 122 121 120 117 116 114 112 111 109 110 110 110 111 110 110 109 111 112 110 110 110 110 106 100 100 105 105 103 102 99 96 91 83 77 75 70 66 77 94 95 92 88 82 80 80 83 90 92 92 89 88 88 86 85 83 80
150 153 153 153 152 155 157 153 150 143 132 123 119 122 134 139 136 131 128 127 124 120 120 120 120 122 123 123 123 123 122 119 117 116 114 112 110 108 109 108 109 109 110 110 109 112 114 113 113 115 118 112 101 99 105 107 106 104 100 99 95 82 72 70 67 70 89 101 101 96 91 86 81 81 84 90 92 91 90 89 88 87 85 81 80
150 152 153 153 152 155 157 154 151 143 134 125 121 122 130 138 137 132 128 126 123 122 123 124 124 126 126 125 125 125 124 120 119 117 114 113 111 110 107 105 105 104 108 112 109 109 114 116 114 117 122 114 102 99 104 107 108 107 103 102 98 73 64 75 76 79 94 102 104 98 91 87 87 89 87 90 94 93 92 90 88 87 86 82 82
149 152 153 153 152 155 158 155 151 145 136 128 124 123 128 135 137 133 129 127 125 125 127 127 127 128 128 126 126 126 124 121 120 118 116 116 114 115 114 112 110 107 110 117 120 115 115 120 114 112 116 111 106 105 108 111 111 110 104 92 75 66 75 89 90 93 101 103 100 90 87 91 91 91 89 92 97 96 94 92 92 91 89 86 83
149 151 153 153 152 155 158 156 152 147 139 131 127 127 131 135 139 135 130 130 127 128 129 127 128 129 128 127 127 125 123 122 121 120 120 120 118 121 121 119 118 118 117 122 132 130 127 127 122 119 122 119 117 116 115 117 115 103 83 68 69 102 147 129 109 108 106 105 96 87 92 97 96 95 93 95 98 100 95 91 95 96 92 87 83
148 151 153 152 151 156 157 155 152 148 142 134 132 131 133 138 141 135 131 132 128 129 130 129 129 129 128 127 127 126 125 124 122 122 124 122 121 122 118 117 114 114 115 117 127 135 140 144 145 143 141 132 123 119 118 118 108 80 65 68 76 100 132 135 124 115 107 102 95 94 97 98 103 107 102 97 96 97 92 88 93 96 93 88 86
147 150 153 152 152 157 157 155 152 149 144 137 136 134 135 139 138 133 132 133 130 132 132 131 130 129 129 128 128 129 128 125 122 121 121 117 115 113 108 107 103 102 109 118 122 129 143 152 158 157 150 137 123 118 118 113 88 64 70 84 87 98 116 126 123 112 103 95 97 103 101 94 97 105 103 101 94 90 93 93 95 94 92 91 90
146 151 152 151 151 157 156 152 151 149 145 139 137 138 139 138 134 131 134 134 133 135 135 134 132 132 133 132 131 132 131 126 123 120 115 109 104 103 102 99 95 97 109 125 129 133 142 146 152 154 148 136 124 123 119 108 83 75 97 107 104 104 110 112 109 106 105 100 106 110 108 99 92 92 95 98 93 88 93 96 97 95 95 96 94
147 151 150 152 153 156 155 150 150 149 146 142 140 141 144 140 133 133 137 139 139 139 140 139 137 136 137 137 136 135 132 127 125 121 113 106 104 101 99 98 95 95 104 119 127 133 137 138 142 142 137 131 125 124 122 107 96 109 120 120 111 105 103 98 101 110 113 109 110 112 113 110 99 95 96 98 97 92 94 99 101 101 104 104 99
147 149 150 153 153 153 154 152 152 150 148 145 144 147 148 142 137 140 143 145 145 144 144 144 144 141 141 143 140 137 133 129 126 121 111 100 99 99 101 104 96 91 91 101 121 134 137 137 138 135 130 126 123 119 114 99 102 120 125 123 113 100 89 89 104 116 120 115 110 110 111 112 109 107 105 104 103 99 101 103 103 105 109 109 103
145 148 151 153 150 152 155 155 156 154 151 149 150 152 152 146 144 147 147 146 147 148 148 146 148 148 146 144 141 139 135 132 128 123 112 90 86 89 96 101 92 85 85 94 117 135 140 137 134 133 128 122 116 111 104 98 110 128 130 122 111 94 76 83 108 124 127 121 116 113 111 115 120 117 110 107 103 101 102 98 99 102 105 109 109
145 147 150 150 151 153 155 157 158 155 153 154 154 152 152 150 147 149 147 145 148 155 154 147 149 155 152 145 142 143 140 139 133 121 103 78 76 81 84 92 90 84 85 98 121 137 141 137 134 133 130 123 112 105 103 104 118 134 134 123 109 90 76 82 107 129 131 124 121 120 119 120 119 113 107 103 93 95 101 94 102 108 101 108 116
146 146 147 150 153 154 158 160 155 151 153 156 155 153 155 154 151 152 149 148 152 160 159 151 152 156 154 150 150 150 149 146 138 125 94 58 53 77 81 88 96 89 85 101 128 143 144 140 138 136 132 127 119 110 106 108 125 139 137 126 110 92 84 84 100 124 129 124 127 130 131 126 122 118 110 105 97 94 99 90 93 132 131 116 119
146 147 148 151 154 157 161 160 158 156 156 157 157 158 161 158 157 156 151 156 158 159 162 160 161 160 156 155 153 153 153 150 142 127 67 30 19 64 78 72 86 90 86 102 132 149 151 148 145 141 135 131 128 118 105 103 129 145 145 133 116 98 90 86 94 111 123 128 133 136 136 134 135 131 118 112 109 99 90 77 64 76 125 119 112
148 150 151 155 157 162 163 162 166 164 162 162 157 155 157 158 158 157 154 164 164 158 165 170 171 169 164 162 159 160 159 156 157 89 18 14 9 21 55 56 66 80 83 99 134 155 159 156 153 148 142 140 134 119 105 96 123 149 153 144 122 105 95 88 90 100 116 129 137 139 141 140 135 134 129 121 117 110 97 87 76 69 95 109 100
149 152 155 160 163 166 164 167 172 169 168 165 157 151 150 153 152 155 155 164 167 164 170 173 174 173 170 170 173 177 180 191 216 346 356 359 4 358 9 39 46 63 72 87 129 160 167 164 162 156 152 152 139 118 111 102 121 151 159 155 134 113 99 89 87 92 106 122 140 149 151 146 133 134 141 133 123 118 115 109 101 79 90 109 105
150 154 160 165 168 169 168 172 175 171 167 161 158 150 144 149 147 149 148 156 166 173 179 177 176 173 174 178 181 188 198 211 235 315 320 330 349 349 344 9 18 41 55 59 105 164 175 173 170 166 165 162 147 128 115 109 121 153 166 164 147 125 103 91 83 86 93 103 129 148 153 147 130 132 139 136 131 132 138 127 115 100 99 110 112
151 157 166 171 173 174 174 177 175 170 163 159 156 147 147 154 149 148 147 151 161 172 179 181 184 182 185 189 190 196 208 220 232 272 295 311 332 338 326 343 344 352 30 34 41 167 185 184 180 177 179 173 159 153 124 110 121 154 179 178 165 146 116 96 79 77 81 83 97 130 153 152 143 147 146 140 142 144 145 130 120 114 114 121 121
155 162 170 177 178 176 177 179 173 167 162 160 156 152 158 160 151 149 153 159 160 161 164 172 182 186 193 194 200 211 215 227 237 253 273 290 304 311 306 315 308 304 335 354 5 331 204 197 193 188 188 186 172 165 153 120 126 154 181 189 191 178 144 103 78 72 74 73 85 120 157 162 167 175 164 157 152 140 134 133 132 128 126 132 137
163 169 173 181 183 179 178 179 171 167 165 162 160 161 165 163 156 156 161 169 167 162 163 167 172 177 186 188 199 208 212 246 262 258 250 261 266 249 270 287 283 280 288 293 300 300 250 214 207 199 196 197 187 171 166 148 131 142 163 189 209 212 206 170 100 74 80 71 77 113 163 172 183 189 180 179 166 145 139 141 139 139 137 140 150
169 173 177 182 185 183 180 175 169 168 168 167 167 168 169 168 166 166 169 174 174 170 172 174 171 171 177 182 183 186 208 277 322 309 297 290 274 248 248 264 274 276 277 283 282 276 268 241 221 209 204 203 198 183 168 157 131 123 132 173 214 231 234 226 219 225 188 98 83 123 187 196 202 198 193 197 185 165 158 160 155 154 155 155 155
173 177 180 184 185 183 179 172 167 170 172 173 171 168 170 175 176 177 178 179 181 181 181 181 179 179 183 184 170 172 213 320 340 331 329 329 316 286 266 263 269 272 269 270 273 275 273 266 241 220 210 205 206 201 182 166 138 113 112 150 226 248 255 251 242 237 232 215 165 159 193 208 211 199 195 193 182 171 163 167 166 167 171 167 166
176 180 183 184 183 179 176 172 169 171 176 180 175 169 170 176 180 186 188 185 187 190 193 197 206 209 216 215 180 195 249 297 315 322 324 324 321 308 299 291 280 277 274 268 265 268 273 274 266 237 218 208 211 216 212 206 226 304 317 286 264 271 272 266 256 246 240 233 215 195 187 204 199 181 193 192 178 178 178 176 165 166 174 173 176
175 180 183 184 181 175 174 173 172 173 179 183 178 174 173 174 181 189 191 191 194 199 206 216 233 249 260 273 274 282 291 303 312 318 318 316 314 304 300 300 296 290 284 279 274 267 268 272 273 256 226 216 219 230 240 250 273 296 304 298 284 284 280 270 259 248 242 237 225 210 195 192 190 187 199 201 183 186 203 189 171 171 176 181 179
175 179 183 183 178 174 173 173 173 176 180 183 181 180 177 176 184 186 186 191 198 208 221 231 245 263 272 286 296 301 304 312 318 317 314 311 308 301 297 297 299 301 299 295 288 277 268 269 272 266 242 230 230 241 258 268 279 291 298 300 296 294 285 270 257 247 240 236 227 216 205 195 200 198 200 208 189 185 197 193 191 188 175 177 171
175 178 181 178 174 172 171 169 169 174 179 182 181 180 178 178 182 181 183 190 194 213 233 250 268 280 289 295 299 303 307 311 314 314 312 312 307 302 299 296 294 299 306 310 305 289 272 265 267 266 256 245 241 248 262 272 281 286 290 295 298 301 293 274 255 246 239 234 228 218 209 204 205 197 197 208 197 189 191 193 200 194 183 183 175
174 177 180 175 171 171 169 169 169 173 178 179 177 174 175 174 174 178 190 195 194 225 251 278 294 298 299 299 301 303 306 308 308 307 309 310 307 303 302 298 293 293 300 305 306 301 285 267 264 263 259 253 250 254 262 272 282 286 286 287 292 299 299 282 255 242 237 234 229 221 212 208 206 199 200 205 198 197 201 197 196 191 191 190 181
176 179 182 177 175 175 172 174 174 175 177 177 176 172 170 165 168 184 205 233 249 269 286 302 306 304 299 297 302 304 304 307 307 307 308 307 303 300 299 299 299 297 292 291 292 295 292 277 267 264 263 259 258 260 263 269 278 285 286 286 290 295 299 291 256 237 234 233 230 224 216 211 210 206 205 207 203 199 200 201 193 188 193 192 188
177 181 183 180 180 180 178 180 182 181 181 181 182 179 178 173 178 203 237 272 291 301 303 309 310 305 299 296 297 298 302 307 309 308 306 305 302 299 299 300 304 303 292 287 286 287 287 285 276 268 265 265 267 270 271 272 274 280 285 288 292 293 295 291 260 234 230 231 228 226 220 217 216 212 210 209 208 200 192 197 197 191 194 196 197
174 180 183 183 184 184 182 185 188 190 189 189 194 195 197 203 224 252 280 295 303 306 305 307 309 305 303 302 298 296 301 311 317 316 312 311 309 304 304 304 305 306 300 294 289 285 282 281 279 272 267 267 272 278 278 278 277 278 283 286 288 289 287 284 264 236 229 230 228 226 222 222 220 217 217 210 209 208 194 192 200 200 201 200 197
176 180 184 185 185 185 184 187 191 195 196 196 203 211 219 238 265 278 288 300 306 309 309 308 311 313 315 319 318 312 312 324 333 336 333 327 321 315 313 311 309 309 306 301 294 289 285 282 278 274 269 268 273 278 279 280 281 279 280 283 284 281 275 271 260 240 231 229 227 225 222 222 221 221 223 216 212 214 203 198 207 207 203 198 193
176 180 184 183 182 183 187 190 192 195 199 202 205 218 235 253 272 289 294 300 307 314 317 313 319 323 322 325 325 324 323 329 334 334 332 326 321 317 316 314 310 308 306 302 296 293 293 289 282 275 271 272 271 271 272 275 280 281 279 279 279 273 265 259 252 243 234 228 226 224 221 221 220 222 225 224 219 214 208 206 213 213 205 199 193
179 183 182 181 182 184 187 191 196 199 202 201 203 222 240 263 284 300 303 305 311 324 329 323 327 329 330 334 330 328 327 329 331 326 325 322 319 318 319 317 309 305 303 299 297 297 298 294 288 282 275 274 273 270 269 270 276 282 282 279 275 269 261 253 249 246 237 229 226 223 221 220 219 221 224 228 226 218 212 211 216 221 216 211 198
182 185 185 188 190 192 194 194 201 205 205 202 212 236 247 274 290 301 312 328 337 344 343 335 335 335 341 349 346 344 341 337 335 330 328 327 325 324 323 322 312 305 301 298 297 297 299 295 293 291 282 275 275 273 272 273 275 274 274 275 272 268 262 253 246 245 239 231 228 226 224 222 221 222 223 226 228 223 218 216 219 224 225 220 199
174 181 186 192 194 197 199 198 205 210 216 221 231 251 267 276 284 308 338 358 357 353 355 352 350 347 349 353 351 352 347 341 338 334 332 329 327 327 326 325 319 312 307 302 300 300 301 299 297 297 290 282 277 273 274 278 276 267 262 264 267 265 259 252 244 240 239 233 229 228 228 227 225 227 226 225 227 226 223 221 220 223 225 219 205
160 168 173 183 186 189 191 192 205 213 216 221 237 256 273 281 301 337 4 17 8 5 9 7 3 1 358 353 350 348 342 338 336 331 328 325 322 323 325 327 326 323 317 310 307 307 305 302 299 296 293 287 279 276 277 275 270 261 256 259 262 260 253 247 242 238 236 233 230 232 234 233 230 230 229 227 226 226 225 224 224 224 224 218 213
154 154 155 166 172 173 175 178 188 201 199 203 234 249 263 313 348 4 21 25 18 16 16 10 4 360 354 347 343 340 336 336 334 329 325 322 319 318 321 325 328 328 324 319 316 312 306 302 299 294 291 287 280 281 282 271 262 255 254 256 253 252 248 242 239 236 235 233 233 235 237 235 233 230 230 229 227 227 226 226 227 226 224 219 216
150 148 145 146 149 151 152 150 151 169 184 192 215 228 24 15 21 22 19 18 18 13 10 9 3 357 353 347 345 341 339 337 332 327 322 319 317 316 320 324 326 327 325 323 321 315 309 304 300 295 292 289 285 283 277 262 244 237 241 247 246 247 243 241 242 239 237 235 235 235 236 236 234 231 229 230 229 227 227 226 227 227 225 223 221
142 141 135 129 132 138 144 147 151 169 179 177 183 38 9 3 9 16 29 36 37 35 33 30 20 16 16 7 2 355 348 344 336 327 318 317 320 320 323 324 324 326 325 321 318 314 311 306 302 298 293 288 285 281 273 259 242 233 236 235 232 238 243 242 241 241 239 236 235 234 235 236 236 232 230 231 230 228 227 226 227 227 226 226 226
137 136 135 132 131 131 136 143 147 152 158 159 123 68 80 69 19 39 63 60 58 66 61 46 38 33 27 17 12 5 355 348 343 337 330 328 329 325 322 320 320 322 324 319 313 311 310 305 301 298 293 283 278 279 278 269 251 233 221 228 208 175 249 236 232 241 240 235 235 234 235 236 235 233 231 231 231 229 227 226 226 228 228 228 227
129 130 131 127 119 115 113 116 116 108 107 111 97 88 90 90 86 89 89 72 60 58 42 35 32 25 18 15 12 3 358 353 348 345 342 338 333 325 320 317 318 323 326 320 314 313 311 306 303 301 294 282 275 276 279 274 259 243 230 221 116 148 253 222 221 244 239 233 234 234 235 236 235 234 232 232 232 230 229 227 226 227 229 229 226
120 124 124 120 113 110 109 108 107 103 100 98 100 103 94 91 98 92 78 67 64 56 45 38 33 27 21 18 13 2 355 353 350 346 341 338 334 332 328 324 326 329 327 320 316 316 314 313 312 306 298 289 280 273 272 270 261 249 238 233 235 241 244 187 178 265 246 234 233 232 233 235 235 235 234 234 234 232 230 228 227 227 228 228 226
116 119 118 116 113 110 106 104 101 100 98 96 99 101 94 87 87 82 72 74 80 74 67 57 46 40 31 25 20 9 360 356 355 352 346 341 334 332 332 332 332 329 325 322 319 317 315 317 316 308 302 296 285 270 270 271 257 244 244 240 238 239 241 234 216 234 278 239 230 229 233 235 234 234 235 235 235 234 233 230 228 227 227 227 225
116 117 115 113 112 108 104 101 98 97 94 92 89 85 89 90 89 90 89 89 87 80 68 54 40 28 19 15 10 2 0 1 2 1 358 353 345 340 338 337 334 327 324 322 320 320 319 318 320 316 309 301 294 281 274 274 258 242 246 243 239 239 238 237 231 220 217 250 231 226 234 236 233 233 236 236 235 235 236 233 229 227 226 226 224
117 116 114 112 110 108 105 100 95 94 93 90 82 76 78 82 86 90 90 88 82 70 52 32 19 11 5 2 357 352 357 1 3 6 5 3 2 357 353 349 345 341 336 330 322 321 322 319 321 321 313 306 306 297 282 274 263 253 252 246 243 242 238 237 235 227 219 231 243 226 227 231 233 235 235 235 236 236 237 236 233 229 226 226 224
115 115 113 110 109 106 103 97 90 89 88 84 79 75 68 62 66 71 75 75 64 51 35 23 17 9 2 0 1 360 1 2 5 10 9 7 5 2 2 0 355 354 353 349 339 329 324 321 321 320 318 318 319 315 302 290 276 265 261 253 246 243 239 236 233 229 225 224 238 247 228 216 221 232 232 232 233 234 235 235 233 230 227 227 225
115 114 110 107 106 102 100 95 88 84 78 74 75 76 70 63 59 60 61 54 46 38 31 30 24 18 15 15 16 9 5 6 8 11 9 8 5 360 360 0 357 356 358 1 357 347 339 333 331 328 326 327 327 325 315 303 291 278 269 260 253 248 242 236 229 228 224 216 226 246 238 227 225 231 233 231 230 230 233 234 231 229 228 227 226